[[{"header":{"parameterUnit":"m.s-1","parameterCategory":1,"la1":30.2991,"la2":30.254,"lo1":-89.0895,"lo2":-89.0444,"dy":0.0017,"dx":0.0017,"nx":28,"ny":28,"refTime":"2025-07-10T09:00:00:Z","depth":0,"parameterNumber":2,"parameterNumberName":"U-component_of_WINDS"},"data":[0,0,0,0,0,0,0,0,0,0,0,0,0,0,0,0,0,0,0,0,0,0,0,0,0,0,0,0,0,0,0,0,0,0,0,0,0,0,0,0,0,0,0,0,0,0,0,0,0,0,0,0,0,0,0,0,0,0,2.5752,2.5752,0,2.5746,2.5746,2.5746,2.5584,2.558,2.5576,2.5572,2.5569,2.5573,2.5577,0,0,0,0,0,0,0,0,0,0,0,0,0,2.5625,2.5628,2.5752,2.5752,2.5751,2.5746,2.5746,2.5746,2.5585,2.558,2.5574,2.557,2.5568,2.5573,2.5577,0,0,0,0,0,0,0,0,0,0,0,0,0,2.5656,2.563,2.5752,2.567,2.5663,2.5746,2.5746,2.5746,2.5586,2.5579,2.5573,2.5567,2.5567,2.5572,2.5578,2.5739,0,0,2.5596,2.5598,0,0,0,0,0,0,0,0,2.5655,2.5661,2.5682,2.5676,2.5668,2.5659,2.57,2.5744,2.5587,2.5615,2.5571,2.5564,2.5605,2.5607,2.562,2.5739,2.5739,2.5596,2.56,2.5602,2.5604,0,0,0,0,0,0,0,2.5653,2.566,2.5749,2.5683,2.5674,2.5635,2.5632,2.5708,2.5645,2.5612,2.56,2.5602,2.5599,2.5615,2.5618,2.5739,2.5596,2.5601,2.5605,2.5607,2.5989,2.5995,0,0,0,0,0,0,2.5661,2.566,2.5749,2.5749,2.5646,2.5642,2.5639,2.5668,2.5644,2.5634,2.5607,2.5594,2.5608,2.5612,2.5618,2.5803,2.5602,2.5607,2.5611,2.5982,2.599,2.5997,0,0,0,0,0,0,2.5659,2.5671,2.575,2.5701,2.5708,2.5651,2.5685,2.5672,2.5686,2.564,2.5628,2.5634,2.5603,2.561,2.5709,2.5801,2.561,2.5615,2.5974,2.5984,2.5994,2.6178,0,0,0,0,0,0,2.5656,2.5671,2.5732,2.5704,2.5711,2.5842,2.5691,2.5676,2.5696,2.5679,2.5662,2.5653,2.5599,2.5702,2.5715,2.5806,2.562,2.5966,2.5979,2.5991,2.6163,2.6193,2.6218,0,0,0,0,0,2.5652,2.5785,2.5735,2.5747,2.5786,2.5847,2.5852,2.5785,2.5704,2.5765,2.5735,2.5654,2.5789,2.5713,2.5727,2.5821,2.596,2.5975,2.599,2.6151,2.6187,2.6218,0,0,0,0,0,0,2.5827,2.578,2.5724,2.5852,2.5855,2.582,2.5894,2.5826,2.5853,2.5836,2.5753,2.575,2.5863,2.5852,2.5768,2.5975,2.586,2.5879,2.5978,2.6012,2.6039,2.6039,2.5625,0,0,0,0,0,2.588,2.5933,2.5889,2.6006,2.601,2.5952,2.5977,2.5925,2.5925,2.5926,2.5903,2.5907,2.595,2.598,2.6017,2.6161,2.6154,2.6232,2.6259,2.6282,2.6299,2.6373,2.6406,2.6047,2.6047,2.6046,0,0,2.5991,2.5972,2.6011,2.6041,2.6037,2.6094,2.5954,2.6022,2.6063,2.5936,2.6028,2.6012,2.6011,2.6133,2.6186,2.6127,2.6397,2.6301,2.632,2.6324,2.6392,2.6426,2.6456,2.6057,2.6055,2.6053,0,0,2.6222,2.6213,2.6308,2.6306,2.6301,2.6261,2.6284,2.626,2.6243,2.6334,2.6239,2.6288,2.6365,2.6367,2.6379,2.6609,2.6535,2.6623,2.6767,2.6839,2.6868,2.6892,2.6974,2.7004,2.664,2.6641,2.6641,0,2.636,2.6442,2.6366,2.6438,2.6454,2.634,2.6435,2.6438,2.6447,2.646,2.6394,2.6486,2.6477,2.6597,2.6653,2.6667,2.669,2.6625,2.687,2.6894,2.6916,2.6992,2.7023,2.6651,2.665,2.6649,2.6648,0,2.6612,2.667,2.6748,2.6756,2.678,2.6865,2.6802,2.6836,2.6782,2.6749,2.6843,2.6828,2.686,2.6884,2.6833,2.6997,2.6961,2.6884,2.6767,2.6962,2.7032,2.7061,2.6667,2.6663,2.666,2.6657,0,0,2.6954,2.6918,2.6947,2.6949,2.6934,2.6978,2.7057,2.7085,2.7116,2.7125,2.7189,2.7255,2.7183,2.7196,2.7144,2.7208,2.739,2.7122,2.7121,2.7172,2.7569,2.7626,2.7662,2.734,2.7346,2.735,2.7568,0,2.7176,2.7307,2.724,2.738,2.7432,2.7323,2.7391,2.739,2.7362,2.7402,2.7371,2.7418,2.732,2.7327,2.7385,2.7355,2.7468,2.7339,2.7399,2.7402,2.7402,2.7698,2.776,2.7967,2.7596,2.76,2.7604,0,2.7453,2.7472,2.7616,2.7589,2.7609,2.7671,2.7691,2.7732,2.7728,2.7702,2.7716,2.7648,2.7724,2.7608,2.7711,2.7624,2.7645,2.7634,2.764,2.7643,2.7515,2.7709,2.8032,2.8063,2.7646,2.7643,2.764,0,2.7687,2.7748,2.7842,2.7847,2.7819,2.7865,2.7856,2.7845,2.7866,2.7884,2.7897,2.7925,2.794,2.7964,2.7905,2.7826,2.8016,2.7895,2.7997,2.7999,2.8042,2.804,2.8372,2.8057,2.8056,2.8055,2.8055,0,2.7942,2.8034,2.7946,2.8004,2.8104,2.8026,2.8128,2.8107,2.8098,2.815,2.8059,2.811,2.8029,2.8072,2.8027,2.8119,2.8127,2.8108,2.8095,2.8116,2.8119,2.8129,2.8113,2.8064,2.8062,2.806,2.8059,0,2.822,2.8165,2.8259,2.8224,2.8217,2.8292,2.8262,2.8314,2.8279,2.8346,2.8357,2.8302,2.8348,2.8291,2.8333,2.8302,2.8427,2.8392,2.8428,2.8418,2.8522,2.8513,2.8872,2.8915,2.8573,2.8577,2.8579,0,2.8386,2.8454,2.8425,2.8452,2.8448,2.8494,2.8514,2.844,2.8465,2.8465,2.8517,2.8555,2.8581,2.8659,2.8624,2.8655,2.862,2.8744,2.8624,2.8643,2.8621,2.8617,2.8624,2.8768,2.8772,2.8776,2.8778,0,2.8686,2.8655,2.8687,2.8709,2.8736,2.875,2.8758,2.8786,2.8709,2.8742,2.8787,2.8807,2.8848,2.8887,2.8907,2.8898,2.8827,2.8816,2.8841,2.8863,2.8881,2.8872,2.8494,2.8808,2.8805,2.8803,2.8802,2.88,2.8912,2.8967,2.8955,2.8993,2.8991,2.9,2.9046,2.9016,2.9051,2.9077,2.9032,2.9088,2.9081,2.9102,2.9101,2.9144,2.9091,2.9128,2.9137,2.9147,2.9162,2.8874,2.9148,2.9147,2.9146,2.9145,2.9145,0,2.9207,2.9193,2.9229,2.9242,2.9272,2.9199,2.9204,2.9234,2.9284,2.9283,2.931,2.9361,2.9398,2.9365,2.9394,2.9436,2.9403,2.9446,2.9442,2.9441,2.9208,2.9183,2.9472,2.9472,2.9471,2.9471,2.9471,2.9471,2.9364,2.9452,2.9419,2.9505,2.949,2.9543,2.9552,2.956,2.9558,2.9619,2.9648,2.9625,2.9611,2.9639,2.9669,2.9658,2.9674,2.9728,2.9706,2.949,2.9457,2.9427,2.9403,2.9732,2.9733,2.9934,2.9936,2.9938]},{"header":{"parameterUnit":"m.s-1","parameterCategory":1,"la1":30.2991,"la2":30.254,"lo1":-89.0895,"lo2":-89.0444,"dy":0.0017,"dx":0.0017,"nx":28,"ny":28,"refTime":"2025-07-10T09:00:00:Z","depth":0,"parameterNumber":3,"parameterNumberName":"V-component_of_WINDS"},"data":[0,0,0,0,0,0,0,0,0,0,0,0,0,0,0,0,0,0,0,0,0,0,0,0,0,0,0,0,0,0,0,0,0,0,0,0,0,0,0,0,0,0,0,0,0,0,0,0,0,0,0,0,0,0,0,0,0,0,-0.0569,-0.057,0,-0.0658,-0.0659,-0.066,-0.075,-0.0751,-0.0753,-0.0754,-0.0846,-0.0847,-0.0848,0,0,0,0,0,0,0,0,0,0,0,0,0,-0.0478,-0.0479,-0.0569,-0.057,-0.0571,-0.0658,-0.0659,-0.0661,-0.075,-0.0751,-0.0753,-0.0754,-0.0845,-0.0847,-0.0848,0,0,0,0,0,0,0,0,0,0,0,0,0,-0.0537,-0.048,-0.0569,-0.0626,-0.0632,-0.0658,-0.0659,-0.0661,-0.075,-0.0752,-0.0753,-0.0755,-0.0845,-0.0847,-0.0849,-0.0824,0,0,-0.0855,-0.0855,0,0,0,0,0,0,0,0,-0.0534,-0.0541,-0.0617,-0.0623,-0.0629,-0.0695,-0.0661,-0.0716,-0.0749,-0.0705,-0.0754,-0.0756,-0.0794,-0.08,-0.0813,-0.0829,-0.0833,-0.0855,-0.0856,-0.0857,-0.0857,0,0,0,0,0,0,0,-0.053,-0.0537,-0.0604,-0.0618,-0.0625,-0.0648,-0.0659,-0.0672,-0.0738,-0.0709,-0.0716,-0.0725,-0.0798,-0.0811,-0.0816,-0.0834,-0.0855,-0.0856,-0.0858,-0.0858,-0.0836,-0.0834,0,0,0,0,0,0,-0.0517,-0.0533,-0.0602,-0.0607,-0.0585,-0.0648,-0.066,-0.0672,-0.0739,-0.075,-0.0724,-0.0729,-0.0807,-0.0813,-0.0819,-0.0796,-0.0857,-0.0859,-0.086,-0.0838,-0.0836,-0.0834,0,0,0,0,0,0,-0.0514,-0.0522,-0.0598,-0.0572,-0.0584,-0.0648,-0.0661,-0.0673,-0.0686,-0.0749,-0.0762,-0.0725,-0.0808,-0.0817,-0.0823,-0.0801,-0.086,-0.0861,-0.084,-0.0837,-0.0835,-0.0749,0,0,0,0,0,0,-0.0511,-0.0521,-0.0512,-0.0571,-0.0585,-0.0599,-0.0659,-0.0673,-0.0689,-0.0697,-0.0754,-0.0765,-0.081,-0.0819,-0.0825,-0.0805,-0.0863,-0.0842,-0.0839,-0.0836,-0.0754,-0.0744,-0.0735,0,0,0,0,0,-0.0508,-0.0484,-0.0511,-0.0518,-0.0575,-0.0597,-0.0605,-0.0658,-0.0687,-0.0679,-0.072,-0.0763,-0.0802,-0.0819,-0.0826,-0.0806,-0.0844,-0.084,-0.0836,-0.0758,-0.0746,-0.0735,0,0,0,0,0,0,-0.042,-0.0493,-0.0523,-0.0518,-0.0551,-0.0613,-0.0604,-0.0643,-0.0669,-0.0675,-0.074,-0.0752,-0.0751,-0.0779,-0.0797,-0.0787,-0.0829,-0.0826,-0.0768,-0.0757,-0.0747,-0.074,-0.0865,0,0,0,0,0,-0.04,-0.0412,-0.0475,-0.0464,-0.0479,-0.0538,-0.055,-0.0588,-0.0625,-0.064,-0.0681,-0.0716,-0.0736,-0.0748,-0.077,-0.0759,-0.0773,-0.0749,-0.0739,-0.0731,-0.0728,-0.0725,-0.0715,-0.0821,-0.0821,-0.0821,0,0,-0.0358,-0.0399,-0.0403,-0.0447,-0.0477,-0.0489,-0.0549,-0.0559,-0.0569,-0.0641,-0.065,-0.0681,-0.0724,-0.0722,-0.0723,-0.0746,-0.0702,-0.0726,-0.0719,-0.072,-0.072,-0.0709,-0.0701,-0.0818,-0.0818,-0.0819,0,0,-0.0288,-0.0321,-0.0315,-0.0345,-0.039,-0.043,-0.0428,-0.0485,-0.0508,-0.0518,-0.0573,-0.0586,-0.0619,-0.0648,-0.0667,-0.0609,-0.065,-0.0615,-0.0564,-0.0561,-0.0553,-0.0545,-0.0525,-0.0517,-0.0612,-0.0611,-0.0611,0,-0.0231,-0.025,-0.0308,-0.0314,-0.0332,-0.0399,-0.0395,-0.0421,-0.047,-0.0482,-0.0507,-0.0551,-0.0585,-0.059,-0.0576,-0.0589,-0.059,-0.0608,-0.0549,-0.0543,-0.0537,-0.0518,-0.0511,-0.0607,-0.0607,-0.0608,-0.0608,0,-0.0178,-0.0191,-0.0181,-0.0228,-0.0245,-0.0246,-0.0304,-0.0315,-0.0352,-0.0389,-0.0398,-0.0441,-0.0474,-0.0478,-0.0514,-0.0489,-0.0502,-0.0537,-0.0581,-0.0521,-0.0505,-0.0498,-0.06,-0.0602,-0.0603,-0.0604,0,0,-0.0054,-0.0133,-0.0129,-0.0151,-0.0206,-0.0218,-0.0222,-0.0254,-0.0262,-0.0295,-0.03,-0.0328,-0.0361,-0.0382,-0.0423,-0.0419,-0.0372,-0.0455,-0.0457,-0.0438,-0.0347,-0.032,-0.0311,-0.04,-0.0398,-0.0398,-0.0344,0,0.0006,-0.0005,-0.0058,-0.0054,-0.0067,-0.0131,-0.0136,-0.017,-0.0205,-0.0222,-0.0262,-0.028,-0.0322,-0.0336,-0.0336,-0.0377,-0.0354,-0.0382,-0.0406,-0.0406,-0.0392,-0.0303,-0.0274,-0.0221,-0.0338,-0.0337,-0.0336,0,0.0075,0.0047,0.005,-0.0006,-0.0014,-0.0016,-0.005,-0.0065,-0.0106,-0.0132,-0.0157,-0.0202,-0.0211,-0.0252,-0.0266,-0.0284,-0.0297,-0.0319,-0.0319,-0.0323,-0.0367,-0.0304,-0.0205,-0.0197,-0.0327,-0.0327,-0.0328,0,0.0165,0.0128,0.0124,0.0107,0.0042,0.0041,0.0014,-0.0029,-0.0045,-0.0075,-0.0086,-0.0117,-0.0133,-0.0156,-0.0209,-0.0234,-0.0217,-0.0263,-0.024,-0.0238,-0.0233,-0.0232,-0.0134,-0.0241,-0.0241,-0.0241,-0.0242,0,0.0238,0.0243,0.0164,0.0162,0.0164,0.0103,0.0107,0.0073,0.0035,0.0025,-0.0033,-0.0041,-0.0111,-0.0127,-0.0169,-0.0174,-0.0182,-0.0203,-0.0214,-0.0198,-0.0195,-0.0207,-0.0212,-0.0239,-0.024,-0.024,-0.0241,0,0.034,0.0287,0.0279,0.0218,0.0202,0.0207,0.0154,0.0149,0.0109,0.0097,0.009,0.0028,0.0006,-0.0049,-0.0087,-0.0115,-0.011,-0.013,-0.0095,-0.0102,-0.0076,-0.0078,0.0018,0.0027,-0.0085,-0.0084,-0.0083,0,0.039,0.0392,0.033,0.0319,0.0294,0.0277,0.0261,0.02,0.0185,0.0137,0.0138,0.0111,0.0086,0.0052,0.0003,-0.0026,-0.0047,-0.0012,-0.0052,-0.0036,-0.0047,-0.0046,-0.0047,-0.0003,-0.0001,0.0,0.0001,0,0.0485,0.0458,0.0437,0.0405,0.0387,0.0359,0.0329,0.0323,0.0255,0.024,0.0216,0.0197,0.0158,0.0132,0.0095,0.0065,0.0022,0.0014,0.0018,0.0035,0.0055,0.0044,-0.0071,0.0012,0.0011,0.001,0.001,0.0009,0.0562,0.056,0.0516,0.0494,0.0464,0.0436,0.0429,0.0388,0.0367,0.0331,0.0296,0.0276,0.0233,0.0179,0.0153,0.0135,0.0113,0.0119,0.012,0.0122,0.013,0.0057,0.0128,0.0128,0.0127,0.0127,0.0127,0,0.0653,0.0622,0.0602,0.056,0.0542,0.0503,0.0466,0.0453,0.0436,0.04,0.0377,0.0348,0.0322,0.0271,0.0239,0.0235,0.0214,0.0229,0.0229,0.0223,0.0151,0.0151,0.0246,0.0246,0.0246,0.0246,0.0246,0.0246,0.0699,0.0694,0.0662,0.0641,0.0609,0.0588,0.0571,0.0545,0.0516,0.0487,0.0465,0.0432,0.0389,0.0354,0.0328,0.0313,0.0304,0.0325,0.0305,0.0239,0.0228,0.0217,0.0217,0.0324,0.0324,0.0377,0.0378,0.0378]}]]